Regional Weather Roundup
Issued by NWS

Home | Current Version | Previous Version | Text Only | Print | Product List | Glossary Off
Versions: 1 2 3 4 5 6 7 8 9 10 11 12 13 14 15 16 17 18 19 20 21 22 23 24 25 26 27 28 29 30 31 32 33 34 35 36 37 38 39 40 41 42 43 44 45 46 47 48 49 50

000
ASUS45 KABQ 312210
RWRNM
WEATHER ROUNDUP FOR NEW MEXICO
NATIONAL WEATHER SERVICE ALBUQUERQUE NM
400 PM MDT FRI OCT 31 2014

NOTE: "FAIR" MEANS FEW OR NO CLOUDS BELOW 12,000 FEET AGL WITH NO
       SIGNIFICANT WEATHER OR OBSTRUCTIONS TO VISION.

      THIS PRODUCT IS RELEASED AS TWO VERSIONS.  ONE VERSION NEAR
      THE TOP OF THE HOUR CONTAINING PRELIMINARY DATA FROM ALBUQUERQUE
      AND OTHER STATIONS.  A FINAL VERSION WITH ADDITIONAL DATA IS
      ISSUED ABOUT 10 MINUTES AFTER THE HOUR.

NMZ501-503-504-510>518-312300-
NORTHWEST PLATEAU/NORTHCENTRAL MOUNTAINS

CITY           SKY/WX    TMP DP  RH WIND       PRES   REMARKS
FARMINGTON     SUNNY     70  27  20 E12       30.13F
LOS ALAMOS     MOSUNNY   58  28  31 S5        30.33S
SANTA FE       MOSUNNY   63  27  25 S13G23    30.29F
TAOS           MOSUNNY   61  27  27 SW16      30.31S
ANGEL FIRE     FAIR      55  24  30 SW5       30.35F

$$
NMZ402-403-502-505>509-312300-
WESTCENTRAL MOUNTAINS/SOUTHWEST MOUNTAINS

CITY           SKY/WX    TMP DP  RH WIND       PRES   REMARKS
GALLUP         MOSUNNY   70  35  27 S10       30.15F
GRANTS         SUNNY     64  30  27 SE20G30   30.24F
SILVER CITY    MOSUNNY   66  41  39 SE20G28   30.25R

$$
NMZ407-409-411-412-312300-
SOUTHERN DESERTS

CITY           SKY/WX    TMP DP  RH WIND       PRES   REMARKS
LORDSBURG      FAIR      72  46  40 E24G33    30.13R
DEMING         MOSUNNY   73  47  39 SE16G26   30.17S
LAS CRUCES     MOSUNNY   71  39  31 E16G26    30.21S
HOLLOMAN AFB   MOSUNNY   73  36  25 S16       30.19F
T OR C         SUNNY     70  40  33 S7G17     30.21F

$$
NMZ519>523-312300-
CENTRAL VALLEYS/CENTRAL HIGHLANDS

CITY           SKY/WX    TMP DP  RH WIND       PRES   REMARKS
ALBUQUERQUE    MOSUNNY   69  31  24 SE8       30.23F
DOUBLE EAGLE   MOSUNNY   64  34  32 SE9       30.27F
MORIARTY ARPT  FAIR      65  28  25 S15G21    30.31F
CLINES CORNERS MOSUNNY   59  29  31 SE15G22   30.33F
BELEN          FAIR      69  36  29 S15G21    30.23S
SOCORRO        FAIR      71  35  26 S15G21    30.21S

$$
NMZ524>526-539-540-312300-
SOUTHCENTRAL MOUNTAINS

CITY           SKY/WX    TMP DP  RH WIND       PRES   REMARKS
RUIDOSO        MOSUNNY   54  32  43 SE16G23   30.38S

$$
NMZ527>531-312300-
NORTHEAST HIGHLANDS/NORTHEAST PLAINS

CITY           SKY/WX    TMP DP  RH WIND       PRES   REMARKS
LAS VEGAS      MOSUNNY   57  28  33 S21       30.34F
RATON          SUNNY     58  27  30 S23G33    30.26F
CLAYTON        MOSUNNY   58  28  32 S24G32    30.30F

$$
NMZ532>537-312300-
EASTCENTRAL PLAINS

CITY           SKY/WX    TMP DP  RH WIND       PRES   REMARKS
TUCUMCARI      SUNNY     66  28  24 S14       30.30F
CANNON AFB     SUNNY     64  31  28 S16       30.33F
CLOVIS AIRPORT MOSUNNY   63  30  29 S17       30.36F

$$
NMZ028-029-538-312300-
SOUTHEAST PLAINS

CITY           SKY/WX    TMP DP  RH WIND       PRES   REMARKS
ROSWELL        MOSUNNY   67  33  28 SE14      30.30F
CARLSBAD       SUNNY     68  33  27 SE14      30.28F
HOBBS          SUNNY     64  32  29 SE12      30.34F


$$



USA.gov is the U.S. government's official web portal to all federal, state and local government web resources and services.